day	date	pt	work	leisure	leisPublic	leisPrivate	educ_kiga	educ_primary	educ_secondary	educ_tertiary	educ_higher	educ_other	shop_daily	shop_other	errands	business	visit	home	quarantine_home
1	2020-02-25	1.00_1.00_{}	1.00_1.00_{}	1.00_1.00_{}	1.00_1.00_{}	1.00_1.00_{}	1.00_1.00_{}	1.00_1.00_{}	1.00_1.00_{}	1.00_1.00_{}	1.00_1.00_{}	1.00_1.00_{}	1.00_1.00_{}	1.00_1.00_{}	1.00_1.00_{}	1.00_1.00_{}	1.00_1.00_{}	1.00_1.00_{}	1.00_1.00_{}
2	2020-02-26	1.00_1.00_{}	1.00_1.00_{}	1.00_1.00_{}	1.00_1.00_{}	1.00_1.00_{}	1.00_1.00_{}	1.00_1.00_{}	1.00_1.00_{}	1.00_1.00_{}	1.00_1.00_{}	1.00_1.00_{}	1.00_1.00_{}	1.00_1.00_{}	1.00_1.00_{}	1.00_1.00_{}	1.00_1.00_{}	1.00_1.00_{}	1.00_1.00_{}
3	2020-02-27	1.00_1.00_{}	1.00_1.00_{}	1.00_1.00_{}	1.00_1.00_{}	1.00_1.00_{}	1.00_1.00_{}	1.00_1.00_{}	1.00_1.00_{}	1.00_1.00_{}	1.00_1.00_{}	1.00_1.00_{}	1.00_1.00_{}	1.00_1.00_{}	1.00_1.00_{}	1.00_1.00_{}	1.00_1.00_{}	1.00_1.00_{}	1.00_1.00_{}
4	2020-02-28	1.00_1.00_{}	1.00_1.00_{}	1.00_1.00_{}	1.00_1.00_{}	1.00_1.00_{}	1.00_1.00_{}	1.00_1.00_{}	1.00_1.00_{}	1.00_1.00_{}	1.00_1.00_{}	1.00_1.00_{}	1.00_1.00_{}	1.00_1.00_{}	1.00_1.00_{}	1.00_1.00_{}	1.00_1.00_{}	1.00_1.00_{}	1.00_1.00_{}
5	2020-02-29	1.00_1.00_{}	1.00_1.00_{}	1.00_1.00_{}	1.00_1.00_{}	1.00_1.00_{}	1.00_1.00_{}	1.00_1.00_{}	1.00_1.00_{}	1.00_1.00_{}	1.00_1.00_{}	1.00_1.00_{}	1.00_1.00_{}	1.00_1.00_{}	1.00_1.00_{}	1.00_1.00_{}	1.00_1.00_{}	1.00_1.00_{}	1.00_1.00_{}
6	2020-03-01	1.00_1.00_{}	1.00_1.00_{}	1.00_1.00_{}	1.00_1.00_{}	1.00_1.00_{}	1.00_1.00_{}	1.00_1.00_{}	1.00_1.00_{}	1.00_1.00_{}	1.00_1.00_{}	1.00_1.00_{}	1.00_1.00_{}	1.00_1.00_{}	1.00_1.00_{}	1.00_1.00_{}	1.00_1.00_{}	1.00_1.00_{}	1.00_1.00_{}
7	2020-03-02	1.00_1.00_{}	0.77_1.00_{}	0.77_1.00_{}	0.77_1.00_{}	0.77_1.00_{}	1.00_1.00_{}	1.00_1.00_{}	1.00_1.00_{}	1.00_1.00_{}	1.00_1.00_{}	1.00_1.00_{}	0.77_1.00_{}	0.77_1.00_{}	0.77_1.00_{}	0.77_1.00_{}	0.77_1.00_{}	1.00_1.00_{}	1.00_1.00_{}
8	2020-03-03	1.00_1.00_{}	0.77_1.00_{}	0.77_1.00_{}	0.77_1.00_{}	0.77_1.00_{}	1.00_1.00_{}	1.00_1.00_{}	1.00_1.00_{}	1.00_1.00_{}	1.00_1.00_{}	1.00_1.00_{}	0.77_1.00_{}	0.77_1.00_{}	0.77_1.00_{}	0.77_1.00_{}	0.77_1.00_{}	1.00_1.00_{}	1.00_1.00_{}
9	2020-03-04	1.00_1.00_{}	0.77_1.00_{}	0.77_1.00_{}	0.77_1.00_{}	0.77_1.00_{}	1.00_1.00_{}	1.00_1.00_{}	1.00_1.00_{}	1.00_1.00_{}	1.00_1.00_{}	1.00_1.00_{}	0.77_1.00_{}	0.77_1.00_{}	0.77_1.00_{}	0.77_1.00_{}	0.77_1.00_{}	1.00_1.00_{}	1.00_1.00_{}
10	2020-03-05	1.00_1.00_{}	0.77_1.00_{}	0.77_1.00_{}	0.77_1.00_{}	0.77_1.00_{}	1.00_1.00_{}	1.00_1.00_{}	1.00_1.00_{}	1.00_1.00_{}	1.00_1.00_{}	1.00_1.00_{}	0.77_1.00_{}	0.77_1.00_{}	0.77_1.00_{}	0.77_1.00_{}	0.77_1.00_{}	1.00_1.00_{}	1.00_1.00_{}
11	2020-03-06	1.00_1.00_{}	0.77_1.00_{}	0.77_1.00_{}	0.77_1.00_{}	0.77_1.00_{}	1.00_1.00_{}	1.00_1.00_{}	1.00_1.00_{}	1.00_1.00_{}	1.00_1.00_{}	1.00_1.00_{}	0.77_1.00_{}	0.77_1.00_{}	0.77_1.00_{}	0.77_1.00_{}	0.77_1.00_{}	1.00_1.00_{}	1.00_1.00_{}
12	2020-03-07	1.00_1.00_{}	0.77_1.00_{}	0.77_1.00_{}	0.77_1.00_{}	0.77_1.00_{}	1.00_1.00_{}	1.00_1.00_{}	1.00_1.00_{}	1.00_1.00_{}	1.00_1.00_{}	1.00_1.00_{}	0.77_1.00_{}	0.77_1.00_{}	0.77_1.00_{}	0.77_1.00_{}	0.77_1.00_{}	1.00_1.00_{}	1.00_1.00_{}
13	2020-03-08	1.00_1.00_{}	0.77_1.00_{}	0.77_1.00_{}	0.77_1.00_{}	0.77_1.00_{}	1.00_1.00_{}	1.00_1.00_{}	1.00_1.00_{}	1.00_1.00_{}	1.00_1.00_{}	1.00_1.00_{}	0.77_1.00_{}	0.77_1.00_{}	0.77_1.00_{}	0.77_1.00_{}	0.77_1.00_{}	1.00_1.00_{}	1.00_1.00_{}
14	2020-03-09	1.00_1.00_{}	0.77_1.00_{}	0.77_1.00_{}	0.77_1.00_{}	0.77_1.00_{}	1.00_1.00_{}	1.00_1.00_{}	1.00_1.00_{}	1.00_1.00_{}	1.00_1.00_{}	1.00_1.00_{}	0.77_1.00_{}	0.77_1.00_{}	0.77_1.00_{}	0.77_1.00_{}	0.77_1.00_{}	1.00_1.00_{}	1.00_1.00_{}
15	2020-03-10	1.00_1.00_{}	0.77_1.00_{}	0.77_1.00_{}	0.77_1.00_{}	0.77_1.00_{}	1.00_1.00_{}	1.00_1.00_{}	1.00_1.00_{}	1.00_1.00_{}	1.00_1.00_{}	1.00_1.00_{}	0.77_1.00_{}	0.77_1.00_{}	0.77_1.00_{}	0.77_1.00_{}	0.77_1.00_{}	1.00_1.00_{}	1.00_1.00_{}
16	2020-03-11	1.00_1.00_{}	0.77_1.00_{}	0.77_1.00_{}	0.77_1.00_{}	0.77_1.00_{}	1.00_1.00_{}	1.00_1.00_{}	1.00_1.00_{}	1.00_1.00_{}	1.00_1.00_{}	1.00_1.00_{}	0.77_1.00_{}	0.77_1.00_{}	0.77_1.00_{}	0.77_1.00_{}	0.77_1.00_{}	1.00_1.00_{}	1.00_1.00_{}
17	2020-03-12	1.00_1.00_{}	0.77_1.00_{}	0.77_1.00_{}	0.77_1.00_{}	0.77_1.00_{}	1.00_1.00_{}	1.00_1.00_{}	1.00_1.00_{}	1.00_1.00_{}	1.00_1.00_{}	1.00_1.00_{}	0.77_1.00_{}	0.77_1.00_{}	0.77_1.00_{}	0.77_1.00_{}	0.77_1.00_{}	1.00_1.00_{}	1.00_1.00_{}
18	2020-03-13	1.00_1.00_{}	0.77_1.00_{}	0.77_1.00_{}	0.77_1.00_{}	0.77_1.00_{}	1.00_1.00_{}	1.00_1.00_{}	1.00_1.00_{}	1.00_1.00_{}	1.00_1.00_{}	1.00_1.00_{}	0.77_1.00_{}	0.77_1.00_{}	0.77_1.00_{}	0.77_1.00_{}	0.77_1.00_{}	1.00_1.00_{}	1.00_1.00_{}
19	2020-03-14	1.00_1.00_{}	0.77_1.00_{}	0.77_1.00_{}	0.77_1.00_{}	0.77_1.00_{}	1.00_1.00_{}	1.00_1.00_{}	1.00_1.00_{}	1.00_1.00_{}	1.00_1.00_{}	1.00_1.00_{}	0.77_1.00_{}	0.77_1.00_{}	0.77_1.00_{}	0.77_1.00_{}	0.77_1.00_{}	1.00_1.00_{}	1.00_1.00_{}
20	2020-03-15	1.00_1.00_{}	0.63_1.00_{}	0.63_1.00_{}	0.63_1.00_{}	0.63_1.00_{}	1.00_1.00_{}	1.00_1.00_{}	1.00_1.00_{}	1.00_1.00_{}	1.00_1.00_{}	1.00_1.00_{}	0.63_1.00_{}	0.63_1.00_{}	0.63_1.00_{}	0.63_1.00_{}	0.63_1.00_{}	1.00_1.00_{}	1.00_1.00_{}
21	2020-03-16	1.00_1.00_{}	0.63_1.00_{}	0.63_1.00_{}	0.63_1.00_{}	0.63_1.00_{}	0.20_1.00_{}	0.20_1.00_{}	0.20_1.00_{}	0.20_1.00_{}	0.20_1.00_{}	0.20_1.00_{}	0.63_1.00_{}	0.63_1.00_{}	0.63_1.00_{}	0.63_1.00_{}	0.63_1.00_{}	1.00_1.00_{}	1.00_1.00_{}
22	2020-03-17	1.00_1.00_{}	0.63_1.00_{}	0.63_1.00_{}	0.63_1.00_{}	0.63_1.00_{}	0.20_1.00_{}	0.20_1.00_{}	0.20_1.00_{}	0.20_1.00_{}	0.20_1.00_{}	0.20_1.00_{}	0.63_1.00_{}	0.63_1.00_{}	0.63_1.00_{}	0.63_1.00_{}	0.63_1.00_{}	1.00_1.00_{}	1.00_1.00_{}
23	2020-03-18	1.00_1.00_{}	0.63_1.00_{}	0.63_1.00_{}	0.63_1.00_{}	0.63_1.00_{}	0.20_1.00_{}	0.20_1.00_{}	0.20_1.00_{}	0.20_1.00_{}	0.20_1.00_{}	0.20_1.00_{}	0.63_1.00_{}	0.63_1.00_{}	0.63_1.00_{}	0.63_1.00_{}	0.63_1.00_{}	1.00_1.00_{}	1.00_1.00_{}
24	2020-03-19	1.00_1.00_{}	0.63_1.00_{}	0.63_1.00_{}	0.63_1.00_{}	0.63_1.00_{}	0.20_1.00_{}	0.20_1.00_{}	0.20_1.00_{}	0.20_1.00_{}	0.20_1.00_{}	0.20_1.00_{}	0.63_1.00_{}	0.63_1.00_{}	0.63_1.00_{}	0.63_1.00_{}	0.63_1.00_{}	1.00_1.00_{}	1.00_1.00_{}
25	2020-03-20	1.00_1.00_{}	0.63_1.00_{}	0.63_1.00_{}	0.63_1.00_{}	0.63_1.00_{}	0.20_1.00_{}	0.20_1.00_{}	0.20_1.00_{}	0.20_1.00_{}	0.20_1.00_{}	0.20_1.00_{}	0.63_1.00_{}	0.63_1.00_{}	0.63_1.00_{}	0.63_1.00_{}	0.63_1.00_{}	1.00_1.00_{}	1.00_1.00_{}
26	2020-03-21	1.00_1.00_{}	0.63_1.00_{}	0.63_1.00_{}	0.63_1.00_{}	0.63_1.00_{}	0.20_1.00_{}	0.20_1.00_{}	0.20_1.00_{}	0.20_1.00_{}	0.20_1.00_{}	0.20_1.00_{}	0.63_1.00_{}	0.63_1.00_{}	0.63_1.00_{}	0.63_1.00_{}	0.63_1.00_{}	1.00_1.00_{}	1.00_1.00_{}
27	2020-03-22	1.00_1.00_{}	0.52_1.00_{}	0.52_1.00_{}	0.52_1.00_{}	0.52_1.00_{}	0.20_1.00_{}	0.20_1.00_{}	0.20_1.00_{}	0.20_1.00_{}	0.20_1.00_{}	0.20_1.00_{}	0.52_1.00_{}	0.52_1.00_{}	0.52_1.00_{}	0.52_1.00_{}	0.52_1.00_{}	1.00_1.00_{}	1.00_1.00_{}
28	2020-03-23	1.00_1.00_{}	0.52_1.00_{}	0.52_1.00_{}	0.52_1.00_{}	0.52_1.00_{}	0.20_1.00_{}	0.20_1.00_{}	0.20_1.00_{}	0.20_1.00_{}	0.20_1.00_{}	0.20_1.00_{}	0.52_1.00_{}	0.52_1.00_{}	0.52_1.00_{}	0.52_1.00_{}	0.52_1.00_{}	1.00_1.00_{}	1.00_1.00_{}
29	2020-03-24	1.00_1.00_{}	0.52_1.00_{}	0.52_1.00_{}	0.52_1.00_{}	0.52_1.00_{}	0.20_1.00_{}	0.20_1.00_{}	0.20_1.00_{}	0.20_1.00_{}	0.20_1.00_{}	0.20_1.00_{}	0.52_1.00_{}	0.52_1.00_{}	0.52_1.00_{}	0.52_1.00_{}	0.52_1.00_{}	1.00_1.00_{}	1.00_1.00_{}
30	2020-03-25	1.00_1.00_{}	0.52_1.00_{}	0.52_1.00_{}	0.52_1.00_{}	0.52_1.00_{}	0.20_1.00_{}	0.20_1.00_{}	0.20_1.00_{}	0.20_1.00_{}	0.20_1.00_{}	0.20_1.00_{}	0.52_1.00_{}	0.52_1.00_{}	0.52_1.00_{}	0.52_1.00_{}	0.52_1.00_{}	1.00_1.00_{}	1.00_1.00_{}
31	2020-03-26	1.00_1.00_{}	0.52_1.00_{}	0.52_1.00_{}	0.52_1.00_{}	0.52_1.00_{}	0.20_1.00_{}	0.20_1.00_{}	0.20_1.00_{}	0.20_1.00_{}	0.20_1.00_{}	0.20_1.00_{}	0.52_1.00_{}	0.52_1.00_{}	0.52_1.00_{}	0.52_1.00_{}	0.52_1.00_{}	1.00_1.00_{}	1.00_1.00_{}
32	2020-03-27	1.00_1.00_{}	0.52_1.00_{}	0.52_1.00_{}	0.52_1.00_{}	0.52_1.00_{}	0.20_1.00_{}	0.20_1.00_{}	0.20_1.00_{}	0.20_1.00_{}	0.20_1.00_{}	0.20_1.00_{}	0.52_1.00_{}	0.52_1.00_{}	0.52_1.00_{}	0.52_1.00_{}	0.52_1.00_{}	1.00_1.00_{}	1.00_1.00_{}
33	2020-03-28	1.00_1.00_{}	0.52_1.00_{}	0.52_1.00_{}	0.52_1.00_{}	0.52_1.00_{}	0.20_1.00_{}	0.20_1.00_{}	0.20_1.00_{}	0.20_1.00_{}	0.20_1.00_{}	0.20_1.00_{}	0.52_1.00_{}	0.52_1.00_{}	0.52_1.00_{}	0.52_1.00_{}	0.52_1.00_{}	1.00_1.00_{}	1.00_1.00_{}
34	2020-03-29	1.00_1.00_{}	0.54_1.00_{}	0.54_1.00_{}	0.54_1.00_{}	0.54_1.00_{}	0.20_1.00_{}	0.20_1.00_{}	0.20_1.00_{}	0.20_1.00_{}	0.20_1.00_{}	0.20_1.00_{}	0.54_1.00_{}	0.54_1.00_{}	0.54_1.00_{}	0.54_1.00_{}	0.54_1.00_{}	1.00_1.00_{}	1.00_1.00_{}
35	2020-03-30	1.00_1.00_{}	0.54_1.00_{}	0.54_1.00_{}	0.54_1.00_{}	0.54_1.00_{}	0.20_1.00_{}	0.20_1.00_{}	0.20_1.00_{}	0.20_1.00_{}	0.20_1.00_{}	0.20_1.00_{}	0.54_1.00_{}	0.54_1.00_{}	0.54_1.00_{}	0.54_1.00_{}	0.54_1.00_{}	1.00_1.00_{}	1.00_1.00_{}
36	2020-03-31	1.00_1.00_{}	0.54_1.00_{}	0.54_1.00_{}	0.54_1.00_{}	0.54_1.00_{}	0.20_1.00_{}	0.20_1.00_{}	0.20_1.00_{}	0.20_1.00_{}	0.20_1.00_{}	0.20_1.00_{}	0.54_1.00_{}	0.54_1.00_{}	0.54_1.00_{}	0.54_1.00_{}	0.54_1.00_{}	1.00_1.00_{}	1.00_1.00_{}
37	2020-04-01	1.00_1.00_{}	0.54_1.00_{}	0.54_1.00_{}	0.54_1.00_{}	0.54_1.00_{}	0.20_1.00_{}	0.20_1.00_{}	0.20_1.00_{}	0.20_1.00_{}	0.20_1.00_{}	0.20_1.00_{}	0.54_1.00_{}	0.54_1.00_{}	0.54_1.00_{}	0.54_1.00_{}	0.54_1.00_{}	1.00_1.00_{}	1.00_1.00_{}
38	2020-04-02	1.00_1.00_{}	0.54_1.00_{}	0.54_1.00_{}	0.54_1.00_{}	0.54_1.00_{}	0.20_1.00_{}	0.20_1.00_{}	0.20_1.00_{}	0.20_1.00_{}	0.20_1.00_{}	0.20_1.00_{}	0.54_1.00_{}	0.54_1.00_{}	0.54_1.00_{}	0.54_1.00_{}	0.54_1.00_{}	1.00_1.00_{}	1.00_1.00_{}
39	2020-04-03	1.00_1.00_{}	0.54_1.00_{}	0.54_1.00_{}	0.54_1.00_{}	0.54_1.00_{}	0.20_1.00_{}	0.20_1.00_{}	0.20_1.00_{}	0.20_1.00_{}	0.20_1.00_{}	0.20_1.00_{}	0.54_1.00_{}	0.54_1.00_{}	0.54_1.00_{}	0.54_1.00_{}	0.54_1.00_{}	1.00_1.00_{}	1.00_1.00_{}
40	2020-04-04	1.00_1.00_{}	0.54_1.00_{}	0.54_1.00_{}	0.54_1.00_{}	0.54_1.00_{}	0.20_1.00_{}	0.20_1.00_{}	0.20_1.00_{}	0.20_1.00_{}	0.20_1.00_{}	0.20_1.00_{}	0.54_1.00_{}	0.54_1.00_{}	0.54_1.00_{}	0.54_1.00_{}	0.54_1.00_{}	1.00_1.00_{}	1.00_1.00_{}
41	2020-04-05	1.00_1.00_{}	0.53_1.00_{}	0.58_1.00_{}	0.58_1.00_{}	0.58_1.00_{}	0.20_1.00_{}	0.20_1.00_{}	0.20_1.00_{}	0.20_1.00_{}	0.20_1.00_{}	0.20_1.00_{}	0.58_1.00_{}	0.58_1.00_{}	0.58_1.00_{}	0.53_1.00_{}	0.58_1.00_{}	1.00_1.00_{}	1.00_1.00_{}
42	2020-04-06	1.00_1.00_{}	0.53_1.00_{}	0.58_1.00_{}	0.58_1.00_{}	0.58_1.00_{}	0.20_1.00_{}	0.20_1.00_{}	0.20_1.00_{}	0.20_1.00_{}	0.20_1.00_{}	0.20_1.00_{}	0.58_1.00_{}	0.58_1.00_{}	0.58_1.00_{}	0.53_1.00_{}	0.58_1.00_{}	1.00_1.00_{}	1.00_1.00_{}
43	2020-04-07	1.00_1.00_{}	0.53_1.00_{}	0.58_1.00_{}	0.58_1.00_{}	0.58_1.00_{}	0.20_1.00_{}	0.20_1.00_{}	0.20_1.00_{}	0.20_1.00_{}	0.20_1.00_{}	0.20_1.00_{}	0.58_1.00_{}	0.58_1.00_{}	0.58_1.00_{}	0.53_1.00_{}	0.58_1.00_{}	1.00_1.00_{}	1.00_1.00_{}
44	2020-04-08	1.00_1.00_{}	0.53_1.00_{}	0.58_1.00_{}	0.58_1.00_{}	0.58_1.00_{}	0.20_1.00_{}	0.20_1.00_{}	0.20_1.00_{}	0.20_1.00_{}	0.20_1.00_{}	0.20_1.00_{}	0.58_1.00_{}	0.58_1.00_{}	0.58_1.00_{}	0.53_1.00_{}	0.58_1.00_{}	1.00_1.00_{}	1.00_1.00_{}
45	2020-04-09	1.00_1.00_{}	0.53_1.00_{}	0.58_1.00_{}	0.58_1.00_{}	0.58_1.00_{}	0.20_1.00_{}	0.20_1.00_{}	0.20_1.00_{}	0.20_1.00_{}	0.20_1.00_{}	0.20_1.00_{}	0.58_1.00_{}	0.58_1.00_{}	0.58_1.00_{}	0.53_1.00_{}	0.58_1.00_{}	1.00_1.00_{}	1.00_1.00_{}
46	2020-04-10	1.00_1.00_{}	0.53_1.00_{}	0.58_1.00_{}	0.58_1.00_{}	0.58_1.00_{}	0.20_1.00_{}	0.20_1.00_{}	0.20_1.00_{}	0.20_1.00_{}	0.20_1.00_{}	0.20_1.00_{}	0.58_1.00_{}	0.58_1.00_{}	0.58_1.00_{}	0.53_1.00_{}	0.58_1.00_{}	1.00_1.00_{}	1.00_1.00_{}
47	2020-04-11	1.00_1.00_{}	0.53_1.00_{}	0.58_1.00_{}	0.58_1.00_{}	0.58_1.00_{}	0.20_1.00_{}	0.20_1.00_{}	0.20_1.00_{}	0.20_1.00_{}	0.20_1.00_{}	0.20_1.00_{}	0.58_1.00_{}	0.58_1.00_{}	0.58_1.00_{}	0.53_1.00_{}	0.58_1.00_{}	1.00_1.00_{}	1.00_1.00_{}
48	2020-04-12	1.00_1.00_{}	0.50_1.00_{}	0.54_1.00_{}	0.54_1.00_{}	0.54_1.00_{}	0.20_1.00_{}	0.20_1.00_{}	0.20_1.00_{}	0.20_1.00_{}	0.20_1.00_{}	0.20_1.00_{}	0.54_1.00_{}	0.54_1.00_{}	0.54_1.00_{}	0.50_1.00_{}	0.54_1.00_{}	1.00_1.00_{}	1.00_1.00_{}
49	2020-04-13	1.00_1.00_{}	0.50_1.00_{}	0.54_1.00_{}	0.54_1.00_{}	0.54_1.00_{}	0.20_1.00_{}	0.20_1.00_{}	0.20_1.00_{}	0.20_1.00_{}	0.20_1.00_{}	0.20_1.00_{}	0.54_1.00_{}	0.54_1.00_{}	0.54_1.00_{}	0.50_1.00_{}	0.54_1.00_{}	1.00_1.00_{}	1.00_1.00_{}
50	2020-04-14	1.00_1.00_{}	0.50_1.00_{}	0.54_1.00_{}	0.54_1.00_{}	0.54_1.00_{}	0.20_1.00_{}	0.20_1.00_{}	0.20_1.00_{}	0.20_1.00_{}	0.20_1.00_{}	0.20_1.00_{}	0.54_1.00_{}	0.54_1.00_{}	0.54_1.00_{}	0.50_1.00_{}	0.54_1.00_{}	1.00_1.00_{}	1.00_1.00_{}
51	2020-04-15	1.00_1.00_{}	0.50_1.00_{}	0.54_1.00_{}	0.54_1.00_{}	0.54_1.00_{}	0.20_1.00_{}	0.20_1.00_{}	0.20_1.00_{}	0.20_1.00_{}	0.20_1.00_{}	0.20_1.00_{}	0.54_1.00_{}	0.54_1.00_{}	0.54_1.00_{}	0.50_1.00_{}	0.54_1.00_{}	1.00_1.00_{}	1.00_1.00_{}
52	2020-04-16	1.00_1.00_{}	0.50_1.00_{}	0.54_1.00_{}	0.54_1.00_{}	0.54_1.00_{}	0.20_1.00_{}	0.20_1.00_{}	0.20_1.00_{}	0.20_1.00_{}	0.20_1.00_{}	0.20_1.00_{}	0.54_1.00_{}	0.54_1.00_{}	0.54_1.00_{}	0.50_1.00_{}	0.54_1.00_{}	1.00_1.00_{}	1.00_1.00_{}
53	2020-04-17	1.00_1.00_{}	0.50_1.00_{}	0.54_1.00_{}	0.54_1.00_{}	0.54_1.00_{}	0.20_1.00_{}	0.20_1.00_{}	0.20_1.00_{}	0.20_1.00_{}	0.20_1.00_{}	0.20_1.00_{}	0.54_1.00_{}	0.54_1.00_{}	0.54_1.00_{}	0.50_1.00_{}	0.54_1.00_{}	1.00_1.00_{}	1.00_1.00_{}
54	2020-04-18	1.00_1.00_{}	0.50_1.00_{}	0.54_1.00_{}	0.54_1.00_{}	0.54_1.00_{}	0.20_1.00_{}	0.20_1.00_{}	0.20_1.00_{}	0.20_1.00_{}	0.20_1.00_{}	0.20_1.00_{}	0.54_1.00_{}	0.54_1.00_{}	0.54_1.00_{}	0.50_1.00_{}	0.54_1.00_{}	1.00_1.00_{}	1.00_1.00_{}
55	2020-04-19	1.00_1.00_{}	0.58_1.00_{}	0.58_1.00_{}	0.58_1.00_{}	0.58_1.00_{}	0.20_1.00_{}	0.20_1.00_{}	0.20_1.00_{}	0.20_1.00_{}	0.20_1.00_{}	0.20_1.00_{}	0.58_1.00_{}	0.58_1.00_{}	0.58_1.00_{}	0.58_1.00_{}	0.58_1.00_{}	1.00_1.00_{}	1.00_1.00_{}
56	2020-04-20	1.00_1.00_{NONE=1.0, CLOTH=1.0, SURGICAL=1.0, N95=1.0}	0.58_1.00_{}	0.58_1.00_{}	0.58_1.00_{}	0.58_1.00_{}	0.20_1.00_{}	0.20_1.00_{}	0.20_1.00_{}	0.20_1.00_{}	0.20_1.00_{}	0.20_1.00_{}	0.58_1.00_{NONE=1.0, CLOTH=1.0, SURGICAL=1.0, N95=1.0}	0.58_1.00_{NONE=1.0, CLOTH=1.0, SURGICAL=1.0, N95=1.0}	0.58_1.00_{NONE=1.0, CLOTH=1.0, SURGICAL=1.0, N95=1.0}	0.58_1.00_{}	0.58_1.00_{}	1.00_1.00_{}	1.00_1.00_{}
57	2020-04-21	1.00_1.00_{NONE=0.09999999999999998, CLOTH=0.55, SURGICAL=1.0}	0.58_1.00_{}	0.58_1.00_{}	0.58_1.00_{}	0.58_1.00_{}	0.20_1.00_{}	0.20_1.00_{}	0.20_1.00_{}	0.20_1.00_{}	0.20_1.00_{}	0.20_1.00_{}	0.58_1.00_{NONE=0.09999999999999998, CLOTH=0.55, SURGICAL=1.0}	0.58_1.00_{NONE=0.09999999999999998, CLOTH=0.55, SURGICAL=1.0}	0.58_1.00_{NONE=0.09999999999999998, CLOTH=0.55, SURGICAL=1.0}	0.58_1.00_{}	0.58_1.00_{}	1.00_1.00_{}	1.00_1.00_{}
58	2020-04-22	1.00_1.00_{NONE=0.09999999999999998, CLOTH=0.55, SURGICAL=1.0}	0.58_1.00_{}	0.58_1.00_{}	0.58_1.00_{}	0.58_1.00_{}	0.20_1.00_{}	0.20_1.00_{}	0.20_1.00_{}	0.20_1.00_{}	0.20_1.00_{}	0.20_1.00_{}	0.58_1.00_{NONE=0.09999999999999998, CLOTH=0.55, SURGICAL=1.0}	0.58_1.00_{NONE=0.09999999999999998, CLOTH=0.55, SURGICAL=1.0}	0.58_1.00_{NONE=0.09999999999999998, CLOTH=0.55, SURGICAL=1.0}	0.58_1.00_{}	0.58_1.00_{}	1.00_1.00_{}	1.00_1.00_{}
59	2020-04-23	1.00_1.00_{NONE=0.09999999999999998, CLOTH=0.55, SURGICAL=1.0}	0.58_1.00_{}	0.58_1.00_{}	0.58_1.00_{}	0.58_1.00_{}	0.20_1.00_{}	0.20_1.00_{}	0.20_1.00_{}	0.20_1.00_{}	0.20_1.00_{}	0.20_1.00_{}	0.58_1.00_{NONE=0.09999999999999998, CLOTH=0.55, SURGICAL=1.0}	0.58_1.00_{NONE=0.09999999999999998, CLOTH=0.55, SURGICAL=1.0}	0.58_1.00_{NONE=0.09999999999999998, CLOTH=0.55, SURGICAL=1.0}	0.58_1.00_{}	0.58_1.00_{}	1.00_1.00_{}	1.00_1.00_{}
60	2020-04-24	1.00_1.00_{NONE=0.09999999999999998, CLOTH=0.55, SURGICAL=1.0}	0.58_1.00_{}	0.58_1.00_{}	0.58_1.00_{}	0.58_1.00_{}	0.20_1.00_{}	0.20_1.00_{}	0.20_1.00_{}	0.20_1.00_{}	0.20_1.00_{}	0.20_1.00_{}	0.58_1.00_{NONE=0.09999999999999998, CLOTH=0.55, SURGICAL=1.0}	0.58_1.00_{NONE=0.09999999999999998, CLOTH=0.55, SURGICAL=1.0}	0.58_1.00_{NONE=0.09999999999999998, CLOTH=0.55, SURGICAL=1.0}	0.58_1.00_{}	0.58_1.00_{}	1.00_1.00_{}	1.00_1.00_{}
61	2020-04-25	1.00_1.00_{NONE=0.09999999999999998, CLOTH=0.55, SURGICAL=1.0}	0.58_1.00_{}	0.58_1.00_{}	0.58_1.00_{}	0.58_1.00_{}	0.20_1.00_{}	0.20_1.00_{}	0.20_1.00_{}	0.20_1.00_{}	0.20_1.00_{}	0.20_1.00_{}	0.58_1.00_{NONE=0.09999999999999998, CLOTH=0.55, SURGICAL=1.0}	0.58_1.00_{NONE=0.09999999999999998, CLOTH=0.55, SURGICAL=1.0}	0.58_1.00_{NONE=0.09999999999999998, CLOTH=0.55, SURGICAL=1.0}	0.58_1.00_{}	0.58_1.00_{}	1.00_1.00_{}	1.00_1.00_{}
62	2020-04-26	1.00_1.00_{NONE=0.09999999999999998, CLOTH=0.55, SURGICAL=1.0}	0.60_1.00_{}	0.60_1.00_{}	0.60_1.00_{}	0.60_1.00_{}	0.20_1.00_{}	0.20_1.00_{}	0.20_1.00_{}	0.20_1.00_{}	0.20_1.00_{}	0.20_1.00_{}	0.60_1.00_{NONE=0.09999999999999998, CLOTH=0.55, SURGICAL=1.0}	0.60_1.00_{NONE=0.09999999999999998, CLOTH=0.55, SURGICAL=1.0}	0.60_1.00_{NONE=0.09999999999999998, CLOTH=0.55, SURGICAL=1.0}	0.60_1.00_{}	0.60_1.00_{}	1.00_1.00_{}	1.00_1.00_{}
63	2020-04-27	1.00_1.00_{NONE=0.09999999999999998, CLOTH=0.55, SURGICAL=1.0}	0.60_1.00_{}	0.60_1.00_{}	0.60_1.00_{}	0.60_1.00_{}	0.50_1.00_{}	0.50_1.00_{}	0.50_1.00_{}	0.50_1.00_{}	0.20_1.00_{}	0.50_1.00_{}	0.60_1.00_{NONE=0.09999999999999998, CLOTH=0.55, SURGICAL=1.0}	0.60_1.00_{NONE=0.09999999999999998, CLOTH=0.55, SURGICAL=1.0}	0.60_1.00_{NONE=0.09999999999999998, CLOTH=0.55, SURGICAL=1.0}	0.60_1.00_{}	0.60_1.00_{}	1.00_1.00_{}	1.00_1.00_{}
64	2020-04-28	1.00_1.00_{NONE=0.09999999999999998, CLOTH=0.55, SURGICAL=1.0}	0.60_1.00_{}	0.60_1.00_{}	0.60_1.00_{}	0.60_1.00_{}	0.50_1.00_{}	0.50_1.00_{}	0.50_1.00_{}	0.50_1.00_{}	0.20_1.00_{}	0.50_1.00_{}	0.60_1.00_{NONE=0.09999999999999998, CLOTH=0.55, SURGICAL=1.0}	0.60_1.00_{NONE=0.09999999999999998, CLOTH=0.55, SURGICAL=1.0}	0.60_1.00_{NONE=0.09999999999999998, CLOTH=0.55, SURGICAL=1.0}	0.60_1.00_{}	0.60_1.00_{}	1.00_1.00_{}	1.00_1.00_{}
65	2020-04-29	1.00_1.00_{NONE=0.09999999999999998, CLOTH=0.55, SURGICAL=1.0}	0.60_1.00_{}	0.60_1.00_{}	0.60_1.00_{}	0.60_1.00_{}	0.50_1.00_{}	0.50_1.00_{}	0.50_1.00_{}	0.50_1.00_{}	0.20_1.00_{}	0.50_1.00_{}	0.60_1.00_{NONE=0.09999999999999998, CLOTH=0.55, SURGICAL=1.0}	0.60_1.00_{NONE=0.09999999999999998, CLOTH=0.55, SURGICAL=1.0}	0.60_1.00_{NONE=0.09999999999999998, CLOTH=0.55, SURGICAL=1.0}	0.60_1.00_{}	0.60_1.00_{}	1.00_1.00_{}	1.00_1.00_{}
66	2020-04-30	1.00_1.00_{NONE=0.09999999999999998, CLOTH=0.55, SURGICAL=1.0}	0.60_1.00_{}	0.60_1.00_{}	0.60_1.00_{}	0.60_1.00_{}	0.50_1.00_{}	0.50_1.00_{}	0.50_1.00_{}	0.50_1.00_{}	0.20_1.00_{}	0.50_1.00_{}	0.60_1.00_{NONE=0.09999999999999998, CLOTH=0.55, SURGICAL=1.0}	0.60_1.00_{NONE=0.09999999999999998, CLOTH=0.55, SURGICAL=1.0}	0.60_1.00_{NONE=0.09999999999999998, CLOTH=0.55, SURGICAL=1.0}	0.60_1.00_{}	0.60_1.00_{}	1.00_1.00_{}	1.00_1.00_{}
67	2020-05-01	1.00_1.00_{NONE=0.09999999999999998, CLOTH=0.55, SURGICAL=1.0}	0.60_1.00_{}	0.60_1.00_{}	0.60_1.00_{}	0.60_1.00_{}	0.50_1.00_{}	0.50_1.00_{}	0.50_1.00_{}	0.50_1.00_{}	0.20_1.00_{}	0.50_1.00_{}	0.60_1.00_{NONE=0.09999999999999998, CLOTH=0.55, SURGICAL=1.0}	0.60_1.00_{NONE=0.09999999999999998, CLOTH=0.55, SURGICAL=1.0}	0.60_1.00_{NONE=0.09999999999999998, CLOTH=0.55, SURGICAL=1.0}	0.60_1.00_{}	0.60_1.00_{}	1.00_1.00_{}	1.00_1.00_{}
68	2020-05-02	1.00_1.00_{NONE=0.09999999999999998, CLOTH=0.55, SURGICAL=1.0}	0.60_1.00_{}	0.60_1.00_{}	0.60_1.00_{}	0.60_1.00_{}	0.50_1.00_{}	0.50_1.00_{}	0.50_1.00_{}	0.50_1.00_{}	0.20_1.00_{}	0.50_1.00_{}	0.60_1.00_{NONE=0.09999999999999998, CLOTH=0.55, SURGICAL=1.0}	0.60_1.00_{NONE=0.09999999999999998, CLOTH=0.55, SURGICAL=1.0}	0.60_1.00_{NONE=0.09999999999999998, CLOTH=0.55, SURGICAL=1.0}	0.60_1.00_{}	0.60_1.00_{}	1.00_1.00_{}	1.00_1.00_{}
69	2020-05-03	1.00_1.00_{NONE=0.09999999999999998, CLOTH=0.55, SURGICAL=1.0}	0.61_1.00_{}	0.61_1.00_{}	0.61_1.00_{}	0.61_1.00_{}	0.50_1.00_{}	0.50_1.00_{}	0.50_1.00_{}	0.50_1.00_{}	0.20_1.00_{}	0.50_1.00_{}	0.61_1.00_{NONE=0.09999999999999998, CLOTH=0.55, SURGICAL=1.0}	0.61_1.00_{NONE=0.09999999999999998, CLOTH=0.55, SURGICAL=1.0}	0.61_1.00_{NONE=0.09999999999999998, CLOTH=0.55, SURGICAL=1.0}	0.61_1.00_{}	0.61_1.00_{}	1.00_1.00_{}	1.00_1.00_{}
70	2020-05-04	1.00_1.00_{NONE=0.09999999999999998, CLOTH=0.55, SURGICAL=1.0}	0.61_1.00_{}	0.61_1.00_{}	0.61_1.00_{}	0.61_1.00_{}	0.50_1.00_{}	0.50_1.00_{}	0.50_1.00_{}	0.50_1.00_{}	0.20_1.00_{}	0.50_1.00_{}	0.61_1.00_{NONE=0.09999999999999998, CLOTH=0.55, SURGICAL=1.0}	0.61_1.00_{NONE=0.09999999999999998, CLOTH=0.55, SURGICAL=1.0}	0.61_1.00_{NONE=0.09999999999999998, CLOTH=0.55, SURGICAL=1.0}	0.61_1.00_{}	0.61_1.00_{}	1.00_1.00_{}	1.00_1.00_{}
71	2020-05-05	1.00_1.00_{NONE=0.09999999999999998, CLOTH=0.55, SURGICAL=1.0}	0.61_1.00_{}	0.61_1.00_{}	0.61_1.00_{}	0.61_1.00_{}	0.50_1.00_{}	0.50_1.00_{}	0.50_1.00_{}	0.50_1.00_{}	0.20_1.00_{}	0.50_1.00_{}	0.61_1.00_{NONE=0.09999999999999998, CLOTH=0.55, SURGICAL=1.0}	0.61_1.00_{NONE=0.09999999999999998, CLOTH=0.55, SURGICAL=1.0}	0.61_1.00_{NONE=0.09999999999999998, CLOTH=0.55, SURGICAL=1.0}	0.61_1.00_{}	0.61_1.00_{}	1.00_1.00_{}	1.00_1.00_{}
72	2020-05-06	1.00_1.00_{NONE=0.09999999999999998, CLOTH=0.55, SURGICAL=1.0}	0.61_1.00_{}	0.61_1.00_{}	0.61_1.00_{}	0.61_1.00_{}	0.50_1.00_{}	0.50_1.00_{}	0.50_1.00_{}	0.50_1.00_{}	0.20_1.00_{}	0.50_1.00_{}	0.61_1.00_{NONE=0.09999999999999998, CLOTH=0.55, SURGICAL=1.0}	0.61_1.00_{NONE=0.09999999999999998, CLOTH=0.55, SURGICAL=1.0}	0.61_1.00_{NONE=0.09999999999999998, CLOTH=0.55, SURGICAL=1.0}	0.61_1.00_{}	0.61_1.00_{}	1.00_1.00_{}	1.00_1.00_{}
73	2020-05-07	1.00_1.00_{NONE=0.09999999999999998, CLOTH=0.55, SURGICAL=1.0}	0.61_1.00_{}	0.61_1.00_{}	0.61_1.00_{}	0.61_1.00_{}	0.50_1.00_{}	0.50_1.00_{}	0.50_1.00_{}	0.50_1.00_{}	0.20_1.00_{}	0.50_1.00_{}	0.61_1.00_{NONE=0.09999999999999998, CLOTH=0.55, SURGICAL=1.0}	0.61_1.00_{NONE=0.09999999999999998, CLOTH=0.55, SURGICAL=1.0}	0.61_1.00_{NONE=0.09999999999999998, CLOTH=0.55, SURGICAL=1.0}	0.61_1.00_{}	0.61_1.00_{}	1.00_1.00_{}	1.00_1.00_{}
74	2020-05-08	1.00_1.00_{NONE=0.09999999999999998, CLOTH=0.55, SURGICAL=1.0}	0.61_1.00_{}	0.61_1.00_{}	0.61_1.00_{}	0.61_1.00_{}	0.50_1.00_{}	0.50_1.00_{}	0.50_1.00_{}	0.50_1.00_{}	0.20_1.00_{}	0.50_1.00_{}	0.61_1.00_{NONE=0.09999999999999998, CLOTH=0.55, SURGICAL=1.0}	0.61_1.00_{NONE=0.09999999999999998, CLOTH=0.55, SURGICAL=1.0}	0.61_1.00_{NONE=0.09999999999999998, CLOTH=0.55, SURGICAL=1.0}	0.61_1.00_{}	0.61_1.00_{}	1.00_1.00_{}	1.00_1.00_{}
75	2020-05-09	1.00_1.00_{NONE=0.09999999999999998, CLOTH=0.55, SURGICAL=1.0}	0.61_1.00_{}	0.61_1.00_{}	0.61_1.00_{}	0.61_1.00_{}	0.50_1.00_{}	0.50_1.00_{}	0.50_1.00_{}	0.50_1.00_{}	0.20_1.00_{}	0.50_1.00_{}	0.61_1.00_{NONE=0.09999999999999998, CLOTH=0.55, SURGICAL=1.0}	0.61_1.00_{NONE=0.09999999999999998, CLOTH=0.55, SURGICAL=1.0}	0.61_1.00_{NONE=0.09999999999999998, CLOTH=0.55, SURGICAL=1.0}	0.61_1.00_{}	0.61_1.00_{}	1.00_1.00_{}	1.00_1.00_{}
76	2020-05-10	1.00_1.00_{NONE=0.09999999999999998, CLOTH=0.55, SURGICAL=1.0}	0.61_1.00_{}	0.61_1.00_{}	0.61_1.00_{}	0.61_1.00_{}	0.50_1.00_{}	0.50_1.00_{}	0.50_1.00_{}	0.50_1.00_{}	0.20_1.00_{}	0.50_1.00_{}	0.61_1.00_{NONE=0.09999999999999998, CLOTH=0.55, SURGICAL=1.0}	0.61_1.00_{NONE=0.09999999999999998, CLOTH=0.55, SURGICAL=1.0}	0.61_1.00_{NONE=0.09999999999999998, CLOTH=0.55, SURGICAL=1.0}	0.61_1.00_{}	0.61_1.00_{}	1.00_1.00_{}	1.00_1.00_{}
77	2020-05-11	1.00_1.00_{NONE=0.09999999999999998, CLOTH=0.55, SURGICAL=1.0}	0.61_1.00_{}	0.61_1.00_{}	0.61_1.00_{}	0.61_1.00_{}	0.50_1.00_{}	0.50_1.00_{}	0.50_1.00_{}	0.50_1.00_{}	0.20_1.00_{}	0.50_1.00_{}	0.61_1.00_{NONE=0.09999999999999998, CLOTH=0.55, SURGICAL=1.0}	0.61_1.00_{NONE=0.09999999999999998, CLOTH=0.55, SURGICAL=1.0}	0.61_1.00_{NONE=0.09999999999999998, CLOTH=0.55, SURGICAL=1.0}	0.61_1.00_{}	0.61_1.00_{}	1.00_1.00_{}	1.00_1.00_{}